Regional Weather Roundup
Issued by NWS Little Rock, AR

Home | Current Version | Previous Version | Graphics & Text | Print | Product List | Glossary On
Versions: 1 2 3 4 5 6 7 8 9 10 11 12 13 14 15 16 17 18 19 20 21 22 23 24 25 26 27
000
ASUS44 KLZK 181005
RWRLZK

WEATHER ROUNDUP FOR ARKANSAS
NATIONAL WEATHER SERVICE LITTLE ROCK AR
500 AM CDT FRI APR 18 2014

NOTE: "FAIR" INDICATES FEW OR NO CLOUDS BELOW 12,000 FEET WITH NO
SIGNIFICANT WEATHER AND/OR OBSTRUCTIONS TO VISIBILITY.

ARZ001-003-010-029-181100-
NORTHWEST ARKANSAS

CITY           SKY/WX    TMP DP  RH WIND       PRES   REMARKS
FAYETTEVILLE   CLOUDY    43  42  97 NW3       30.23S
FORT SMITH     CLOUDY    54  46  74 W3        30.21R
HARRISON       CLOUDY    48  42  80 N5        30.23R
BENTONVILLE    PTCLDY    46  39  76 N6        30.24S
ROGERS         CLOUDY    47  40  76 N3        30.25R
SILOAM SPGS    CLEAR     46  36  66 N5        30.24S
HIGHFILL       CLEAR     44  40  85 N5        30.23R
$$

ARZ004-005-016-181100-
NORTH CENTRAL ARKANSAS

CITY           SKY/WX    TMP DP  RH WIND       PRES   REMARKS
BATESVILLE     MOCLDY    52  45  76 W3        30.23S
FLIPPIN        PTCLDY    48  36  61 CALM      30.23S
MTN HOME       CLOUDY    52  39  61 NE3       30.22S
$$

ARZ040-041-181100-
WEST CENTRAL ARKANSAS

CITY           SKY/WX    TMP DP  RH WIND       PRES   REMARKS
MENA           CLEAR     45  45 100 CALM      30.21S
MOUNT IDA      PTCLDY    47  45  93 CALM      30.18F
$$

ARZ009-017-025-026-028-181100-
NORTHEAST ARKANSAS

CITY           SKY/WX    TMP DP  RH WIND       PRES   REMARKS
CORNING        CLOUDY    55  46  71 N6        30.24F
JONESBORO      MOCLDY    55  45  68 VRB5      30.22F
NEWPORT        CLOUDY    53  47  80 NW7       30.24R
WALNUT RIDGE   MOCLDY    52  45  76 N7        30.24S
BLYTHEVILLE    CLOUDY    53  49  86 CALM      30.22F
$$

ARZ022-023-033-042-044-181100-
CENTRAL ARKANSAS

CITY           SKY/WX    TMP DP  RH WIND       PRES   REMARKS
LITTLE ROCK    CLOUDY    56  49  77 N3        30.22S
N LITTLE ROCK    N/A     56  49  77 N5        30.22S
JACKSONVILLE   CLOUDY    54  50  87 CALM      30.23R
SEARCY         CLOUDY    52  49  89 N5        30.23F
HOT SPRINGS    CLOUDY    53  51  93 CALM      30.21F
RUSSELLVILLE   CLEAR     46  43  89 CALM      30.21S
CLINTON        CLOUDY    52  48  87 CALM      30.24S
$$

ARZ036-181100-
EAST ARKANSAS

CITY           SKY/WX    TMP DP  RH WIND       PRES   REMARKS
WEST MEMPHIS   CLOUDY    56  49  77 N3        30.21S
$$

ARZ050-053-066-070-073-181100-
SOUTHWEST ARKANSAS

CITY           SKY/WX    TMP DP  RH WIND       PRES   REMARKS
ARKADELPHIA    LGT RAIN  54  54 100 CALM      30.21S
CAMDEN         CLOUDY    54  48  82 MISG      30.19F
TEXARKANA      MOCLDY    53  49  86 CALM      30.20R
EL DORADO      CLOUDY    55  50  83 CALM      30.19S
DE QUEEN       FOG       45  45 100 CALM      30.19S VSB 1/2
$$

ARZ056-057-069-181100-
SOUTHEAST ARKANSAS

CITY           SKY/WX    TMP DP  RH WIND       PRES   REMARKS
PINE BLUFF     CLOUDY    53  49  86 N3        30.20S
STUTTGART      CLOUDY    55  48  76 N6        30.22R
MONTICELLO     CLOUDY    55  50  83 CALM      30.18S

$$





USA.gov is the U.S. government's official web portal to all federal, state and local government web resources and services.